Change the Weather History Date:

Saturday, February 26, 2011

  Actual Average Record
Temperature  
Mean Temperature 82 °F -  
Max Temperature 91 °F 92 °F 98 °F (2002)
Min Temperature 73 °F 76 °F 71 °F (1997)
Cooling Degree Days 17    
Growing Degree Days 32 (Base 50)    
Moisture  
Dew Point 71 °F    
Average Humidity 71    
Maximum Humidity 94    
Minimum Humidity 47    
Precipitation  
Precipitation 0.03 in 0.07 in - ()
Sea Level Pressure  
Sea Level Pressure 29.78 in    
Wind  
Wind Speed 4 mph ()    
Max Wind Speed 13 mph    
Max Gust Speed -    
Visibility 5.3 miles    
Events      
Averages and records for this station are not official NWS values.
T = Trace of Precipitation, MM = Missing Value Source: Averaged Metar Reports

Daily Weather History Graph

Daily Weather History Graph

Search for Another Location

Airport or City:

Trip Planner

Search our weather history database for the weather conditions in past years. The results will help you decide how hot, cold, wet, or windy it might be!

Date:

Astronomy

Feb. 26, 2011 Rise Set
Actual Time 6:41 AM ICT 6:38 PM ICT
Civil Twilight 6:20 AM ICT 6:59 PM ICT
Nautical Twilight 5:55 AM ICT 7:23 PM ICT
Astronomical Twilight 5:31 AM ICT 7:48 PM ICT
Moon 1:20 AM ICT (2/26) 1:17 PM ICT (2/26)
Length of Visible Light 12h 38m
Length of Day
11h 56m
Last Quarter, 37% of the Moon is Illuminated
Feb 26
Last Quarter
Mar 5
New
Mar 13
First Quarter
Mar 20
Full
Mar 26
Last Quarter

Hourly Weather History & Observations

Time (ICT) Temp. Heat Index Dew Point Humidity Pressure Visibility Wind Dir Wind Speed Gust Speed Precip Events Conditions
12:00 AM 80.6 °F 84.6 °F 71.6 °F 74% 29.80 in 4.3 mi East 9.2 mph - N/A   Mostly Cloudy
12:30 AM 80.6 °F 83.9 °F 69.8 °F 70% 29.80 in 4.3 mi ESE 6.9 mph - N/A   Mostly Cloudy
1:00 AM 78 °F - 75 °F 88% 29.78 in 6 mi Calm Calm - -   Scattered Clouds
1:00 AM 75.2 °F - 71.6 °F 89% 29.80 in 4.3 mi Variable 2.3 mph - N/A   Mostly Cloudy
1:30 AM 77.0 °F - 69.8 °F 78% 29.80 in 5.0 mi ESE 4.6 mph - N/A   Mostly Cloudy
2:00 AM 77.0 °F - 69.8 °F 78% 29.80 in 5.0 mi Calm Calm - N/A   Mostly Cloudy
2:30 AM 77.0 °F - 69.8 °F 78% 29.80 in 5.0 mi Calm Calm - N/A   Mostly Cloudy
3:00 AM 77.0 °F - 69.8 °F 78% 29.80 in 5.0 mi Calm Calm - N/A   Mostly Cloudy
3:30 AM 75.2 °F - 69.8 °F 83% 29.77 in 5.0 mi Calm Calm - N/A   Mostly Cloudy
4:00 AM 73.4 °F - 69.8 °F 88% 29.77 in 5.0 mi Calm Calm - N/A   Mostly Cloudy
4:30 AM 73.4 °F - 69.8 °F 88% 29.77 in 5.0 mi Calm Calm - N/A   Mostly Cloudy
5:00 AM 73.4 °F - 71.6 °F 94% 29.77 in 5.0 mi Calm Calm - N/A   Mostly Cloudy
5:30 AM 73.4 °F - 71.6 °F 94% 29.77 in 5.0 mi Calm Calm - N/A   Mostly Cloudy
6:00 AM 73.4 °F - 71.6 °F 94% 29.80 in 5.0 mi Calm Calm - N/A   Mostly Cloudy
6:30 AM 73.4 °F - 69.8 °F 88% 29.80 in 3.1 mi Calm Calm - N/A   Mostly Cloudy
7:00 AM 74 °F - 71 °F 88% 29.78 in 4 mi Calm Calm - -   Scattered Clouds
7:00 AM 73.4 °F - 69.8 °F 88% 29.80 in 3.1 mi ESE 2.3 mph - N/A   Mostly Cloudy
7:30 AM 77.0 °F - 71.6 °F 83% 29.83 in 3.1 mi Calm Calm - N/A   Mostly Cloudy
8:00 AM 77.0 °F - 71.6 °F 83% 29.83 in 3.1 mi Calm Calm - N/A   Mostly Cloudy
8:30 AM 80.6 °F 84.6 °F 71.6 °F 74% 29.83 in 4.3 mi East 5.8 mph - N/A   Mostly Cloudy
9:00 AM 82.4 °F 87.2 °F 71.6 °F 70% 29.86 in 5.0 mi ENE 5.8 mph - N/A   Mostly Cloudy
9:30 AM 84.2 °F 89.6 °F 71.6 °F 66% 29.83 in 5.6 mi East 11.5 mph - N/A   Mostly Cloudy
10:00 AM 86.0 °F 90.4 °F 69.8 °F 58% 29.83 in 6.2 mi East 11.5 mph - N/A   Mostly Cloudy
10:30 AM 86.0 °F 91.8 °F 71.6 °F 62% 29.83 in 6.2 mi East 9.2 mph - N/A   Mostly Cloudy
11:00 AM 86.0 °F 91.8 °F 71.6 °F 62% 29.83 in 6.2 mi East 11.5 mph - N/A   Mostly Cloudy
11:30 AM 87.8 °F 93.8 °F 71.6 °F 58% 29.83 in 6.2 mi East 11.5 mph - N/A   Scattered Clouds
1:00 PM 88 °F - 71 °F 47% 29.80 in 6 mi Calm Calm - -   Scattered Clouds
1:00 PM 89.6 °F 94.7 °F 69.8 °F 52% 29.80 in 6.2 mi East 11.5 mph - N/A   Mostly Cloudy
1:30 PM 89.6 °F 94.7 °F 69.8 °F 52% 29.77 in 6.2 mi ESE 11.5 mph - N/A   Mostly Cloudy
2:00 PM 91.4 °F 96.8 °F 69.8 °F 49% 29.77 in 6.2 mi East 11.5 mph - N/A   Mostly Cloudy
2:30 PM 91.4 °F 96.8 °F 69.8 °F 49% 29.74 in 6.2 mi East 9.2 mph - N/A   Mostly Cloudy
3:00 PM 91.4 °F 96.8 °F 69.8 °F 49% 29.74 in 6.2 mi East 8.1 mph - N/A   Mostly Cloudy
3:30 PM 89.6 °F 96.2 °F 71.6 °F 55% 29.74 in 6.2 mi NW 8.1 mph - N/A   Scattered Clouds
4:00 PM 89.6 °F 96.2 °F 71.6 °F 55% 29.71 in 6.2 mi WNW 11.5 mph - N/A   Scattered Clouds
4:30 PM 87.8 °F 93.8 °F 71.6 °F 58% 29.71 in 6.2 mi WNW 12.7 mph - N/A   Scattered Clouds
5:00 PM 86.0 °F 91.8 °F 71.6 °F 62% 29.71 in 6.2 mi WNW 11.5 mph - N/A   Scattered Clouds
5:30 PM 86.0 °F 91.8 °F 71.6 °F 62% 29.71 in 6.2 mi WNW 9.2 mph - N/A   Mostly Cloudy
6:00 PM 86.0 °F 91.8 °F 71.6 °F 62% 29.71 in 6.2 mi WNW 9.2 mph - N/A   Mostly Cloudy
6:30 PM 84.2 °F 89.6 °F 71.6 °F 66% 29.74 in 6.2 mi West 5.8 mph - N/A   Mostly Cloudy
7:00 PM 86 °F - 73 °F 57% 29.71 in 6 mi WNW 5.8 mph - -   Scattered Clouds
7:00 PM 84.2 °F 89.6 °F 71.6 °F 66% 29.74 in 6.2 mi WNW 8.1 mph - N/A   Mostly Cloudy
7:30 PM 84.2 °F 89.6 °F 71.6 °F 66% 29.74 in 6.2 mi WNW 9.2 mph - N/A   Mostly Cloudy
8:00 PM 84.2 °F 89.6 °F 71.6 °F 66% 29.77 in 5.0 mi WNW 8.1 mph - N/A   Mostly Cloudy
8:30 PM 82.4 °F 88.2 °F 73.4 °F 74% 29.77 in 5.0 mi WNW 5.8 mph - N/A   Mostly Cloudy
9:00 PM 82.4 °F 88.2 °F 73.4 °F 74% 29.80 in 5.0 mi WNW 5.8 mph - N/A   Mostly Cloudy
9:30 PM 82.4 °F 88.2 °F 73.4 °F 74% 29.83 in 5.0 mi West 4.6 mph - N/A   Mostly Cloudy
10:00 PM 80.6 °F 85.4 °F 73.4 °F 79% 29.83 in 5.0 mi Calm Calm - N/A   Mostly Cloudy
10:30 PM 78.8 °F - 73.4 °F 83% 29.83 in 5.0 mi Calm Calm - N/A   Mostly Cloudy
11:00 PM 80.6 °F 85.4 °F 73.4 °F 79% 29.83 in 5.0 mi Variable 2.3 mph - N/A   Mostly Cloudy
11:30 PM 78.8 °F - 71.6 °F 78% 29.83 in 5.0 mi Variable 2.3 mph - N/A   Mostly Cloudy